Погода в Йене

Германия     50°55′49″N   11°35′33″E
темп.,
°C
ветер,
м/с
пор.,
м/с
влажн.,
%
обл.,
%
осадки,
мм/ч
давл.,
гПа
погр.,
м
14 мая, пт
пт1423:00+10ю1190100 0.4 100611
02:00+10юз2293100 0.6 100652
05:00+10з2293100 0.6 100551
08:00+10з279592 1.7 1006300
11:00+12сз3685100 1.2 1007597
14:00+12з588692 2.2 1007578
17:00+14зсз356940 0.3 10071136
20:00+11с118413 1.4 100711
15 мая, сб
сб1523:00+8юз22885 0.0 100914
02:00+7ююз33911 0.0 100936
05:00+6ююз339328 0.0 100939
08:00+9ююз5118989 0.0 1009572
11:00+13юз797084 0.0 10081424
14:00+14юз7868100 0.6 10061554
17:00+13юз676772 0.5 10051322
20:00+10ююз4783100 0.9 1005366
16 мая, вс
вс1623:00+8ююз51092100 1.1 1006470
02:00+8ююз5119159 1.3 1005520
05:00+8юз6119212 0.3 1005640
08:00+10ююз598664 0.3 1006840
11:00+12юз687333 0.3 10051254
14:00+13зюз5768100 1.0 10041298
17:00+13зюз6771100 0.9 10031366
20:00+10юз5108498 1.8 1004490
17 мая, пн
пн1723:00+7ююз389212 0.2 1005151
02:00+6ююз359434 0.2 100579
05:00+7юз51193100 0.4 1004418
08:00+9юз51193100 2.6 1004779
11:00+8зюз71190100 4.1 1006755
14:00+9зюз71186100 4.3 10071150
17:00+11зюз8117869 0.1 10071160
20:00+10юз6127940 0.3 1007890
18 мая, вт
вт1823:00+8юз614877 0.0 1007544
02:00+9юз51186100 0.0 1008747
05:00+9зюз51091100 0.3 1009623
08:00+9зюз51089100 0.4 1010511
11:00+10зюз61192100 1.4 1012812
14:00+9з71291100 3.6 1013765
17:00+11з7108577 1.1 1014968
20:00+10з5108623 2.3 1015401